Starlink 3853

operational
NORAD ID: 52359 Int'l Des: 2022-045 Owner: SPXS Country: US Constellation: starlink
LEOCIRCULAR

Über Starlink 3853

Beschreibung wird geladen...

Live-Position

3D-Globus wird geladen...

Nächste Überflüge

Höhenverlauf

Altitude vs Time

uPlot chart will show altitude changes over time

Zweizeiliger Elementsatz

1 52359U 22045AE 25306.49790514 -.00000216 00000-0 45123-5 0 9992
2 52359 53.2177 50.1152 0001286 74.3076 285.8058 15.08838447196582
Epoch: 2. Nov. 2025 • Age: 13 hours

Aktueller Status

Höhe 549.6 km
Geschwindigkeit 7.59 km/s
Subsatellitenpunkt -30.94°S, 28.61°W
Startdatum 29. Apr. 2022
Alter 3.5 years
Typ internet

Technische Details

Klassifizierung Payload
Masse 297.00 kg
Trockenmasse 275.00 kg
Gesamtmasse 297.00 kg
Länge 0.20 m
Durchmesser 2.80 m
Spannweite 9.00 m
Form Box + pan
Hersteller SPXS
Bus-Typ Starlink
Phasenstatus In Orbit
Besitzer/Staat SPXS/US

Große Konstellationen

Loading constellations...